Location: Northcutt
(34.7304°N, 84.4305°W)
Time: 14:36:41
(UTC+00:00)

Transit 2A Rocket - Visible Passes

Search period start: 03 October 2022 00:00
Search period end: 13 October 2022 00:00
Orbit: 593 x 908 km, 66.7° (Epoch: 02 October)

Date Brightness Start Highest point End Pass type
(mag) Time Alt. Az. Time Alt. Az. Time Alt. Az.
03 Oct 5.7 10:23:19 10° S 10:27:28 44° ESE 10:31:33 10° NE visible
04 Oct 6.9 09:41:26 10° SSE 09:44:45 21° ESE 09:48:01 10° ENE visible
05 Oct 4.6 10:39:48 10° SW 10:44:03 55° WNW 10:48:17 10° NNE visible
06 Oct 4.7 09:58:45 25° SSW 10:01:11 70° ESE 10:05:27 10° NNE visible
07 Oct 6.0 09:18:10 32° ESE 09:18:24 33° ESE 09:22:15 10° NE visible
07 Oct 6.0 10:58:08 11° W 11:00:56 19° NW 11:04:02 10° N visible
08 Oct 7.5 08:37:22 13° E 08:37:22 13° E 08:38:22 10° ENE visible
08 Oct 5.1 10:17:18 34° WNW 10:17:52 35° WNW 10:21:50 10° N visible
09 Oct 5.3 09:36:18 41° NNE 09:36:18 41° NNE 09:39:13 10° NNE visible
10 Oct 7.1 08:55:11 17° NE 08:55:11 17° NE 08:56:15 10° NE visible
10 Oct 6.4 10:35:06 13° NW 10:35:06 13° NW 10:36:58 10° NNW visible
11 Oct 6.5 09:53:51 17° NNW 09:53:51 17° NNW 09:55:14 10° N visible
12 Oct 7.2 09:12:31 12° NNE 09:12:31 12° NNE 09:12:51 10° NNE visible
